Location: Bothwell
(41.7170°N, 112.2589°W)
Time: 19:58:08
(UTC+00:00)

ACS3 Solar Sail - Pass Details

Date: 22 April 2026
Orbit: 894 x 947 km, 97.2° (Epoch: 12 May)

Event Time Altitude Azimuth Distance (km) Brightness Sun altitude
Rises 08:10:25 0° 16° (NNE) 3,552 5.8 -35.1°
Reaches altitude 10° 08:12:54 10° 21° (NNE) 2,614 4.8 -35.0°
Enters shadow 08:17:07 42° 54° (NE) 1,286 2.6 -34.8°
